[[{"header":{"parameterUnit":"m.s-1","parameterCategory":1,"la1":30.2991,"la2":30.254,"lo1":-89.0895,"lo2":-89.0444,"dy":0.0017,"dx":0.0017,"nx":28,"ny":28,"refTime":"2023-09-04T09:00:00:Z","depth":0,"parameterNumber":2,"parameterNumberName":"U-component_of_WINDS"},"data":[0,0,0,0,0,0,0,0,0,0,0,0,0,0,0,0,0,0,0,0,0,0,0,0,0,0,0,0,0,0,0,0,0,0,0,0,0,0,0,0,0,0,0,0,0,0,0,0,0,0,0,0,0,0,0,0,0,0,-3.0381,-3.038,0,-3.0369,-3.0369,-3.0369,-3.0252,-3.0249,-3.0246,-3.0243,-3.0233,-3.0235,-3.0237,0,0,0,0,0,0,0,0,0,0,0,0,0,-3.0302,-3.0304,-3.0381,-3.038,-3.038,-3.0369,-3.0369,-3.0369,-3.0252,-3.0249,-3.0245,-3.0242,-3.0232,-3.0235,-3.0238,0,0,0,0,0,0,0,0,0,0,0,0,0,-3.0318,-3.0305,-3.0381,-3.0321,-3.0315,-3.0369,-3.0369,-3.0369,-3.0253,-3.0248,-3.0244,-3.024,-3.0231,-3.0234,-3.0238,-3.0349,0,0,-3.0249,-3.0251,0,0,0,0,0,0,0,0,-3.0317,-3.0321,-3.033,-3.0325,-3.0319,-3.0307,-3.0337,-3.0362,-3.0254,-3.0277,-3.0243,-3.0238,-3.0261,-3.0262,-3.0269,-3.0348,-3.0348,-3.025,-3.0252,-3.0253,-3.0254,0,0,0,0,0,0,0,-3.0316,-3.0321,-3.0376,-3.033,-3.0323,-3.0294,-3.0292,-3.0341,-3.0294,-3.0274,-3.0266,-3.0266,-3.0257,-3.0266,-3.0268,-3.0348,-3.0249,-3.0253,-3.0255,-3.0256,-3.0515,-3.052,0,0,0,0,0,0,-3.0323,-3.0321,-3.0376,-3.0376,-3.0307,-3.03,-3.0297,-3.0315,-3.0293,-3.0285,-3.027,-3.0261,-3.0262,-3.0264,-3.0268,-3.0395,-3.0253,-3.0257,-3.0259,-3.0511,-3.0516,-3.0521,0,0,0,0,0,0,-3.0322,-3.0329,-3.0377,-3.0346,-3.035,-3.0306,-3.0328,-3.0318,-3.0326,-3.0289,-3.028,-3.0288,-3.0259,-3.0262,-3.0329,-3.0393,-3.0258,-3.0262,-3.0505,-3.0512,-3.0519,-3.0651,0,0,0,0,0,0,-3.032,-3.033,-3.0371,-3.0348,-3.0352,-3.0439,-3.0332,-3.0321,-3.0333,-3.0321,-3.0304,-3.0297,-3.0256,-3.0324,-3.0333,-3.0395,-3.0265,-3.0499,-3.0508,-3.0517,-3.0641,-3.0661,-3.0679,0,0,0,0,0,-3.0318,-3.041,-3.0374,-3.0381,-3.0403,-3.0443,-3.0445,-3.0395,-3.0339,-3.038,-3.0356,-3.0297,-3.0385,-3.0332,-3.0341,-3.0405,-3.0495,-3.0506,-3.0516,-3.0632,-3.0657,-3.0679,0,0,0,0,0,0,-3.0443,-3.0405,-3.0366,-3.0452,-3.0452,-3.0423,-3.0474,-3.0424,-3.044,-3.0428,-3.0366,-3.0363,-3.0439,-3.0429,-3.0371,-3.0511,-3.0429,-3.0442,-3.0515,-3.0539,-3.0558,-3.0558,-3.0268,0,0,0,0,0,-3.048,-3.0516,-3.0481,-3.0561,-3.0562,-3.0519,-3.0534,-3.0496,-3.0493,-3.0492,-3.0473,-3.0472,-3.0499,-3.0518,-3.0541,-3.0639,-3.0633,-3.0687,-3.0707,-3.0723,-3.0734,-3.0784,-3.0808,-3.0556,-3.0556,-3.0556,0,0,-3.0559,-3.0542,-3.0569,-3.0586,-3.058,-3.0618,-3.0519,-3.0564,-3.0591,-3.0499,-3.056,-3.0546,-3.0541,-3.0624,-3.0659,-3.0617,-3.0803,-3.0736,-3.0749,-3.0752,-3.0797,-3.0821,-3.0842,-3.0563,-3.0562,-3.0561,0,0,-3.072,-3.0712,-3.0776,-3.0773,-3.0766,-3.0736,-3.0752,-3.073,-3.0717,-3.0778,-3.0709,-3.0741,-3.0789,-3.0788,-3.0794,-3.0954,-3.09,-3.0963,-3.1065,-3.1114,-3.1134,-3.1151,-3.1207,-3.1228,-3.0975,-3.0976,-3.0976,0,-3.0818,-3.0872,-3.0816,-3.0865,-3.0874,-3.0791,-3.0856,-3.0856,-3.0858,-3.0866,-3.0819,-3.0877,-3.0868,-3.0948,-3.0987,-3.0995,-3.1011,-3.0965,-3.1135,-3.1152,-3.1167,-3.122,-3.1242,-3.0983,-3.0982,-3.0981,-3.0981,0,-3.0992,-3.103,-3.1084,-3.1086,-3.1101,-3.1158,-3.1111,-3.1133,-3.1093,-3.1069,-3.1131,-3.1117,-3.1135,-3.1151,-3.1114,-3.1227,-3.1201,-3.1146,-3.1063,-3.12,-3.1248,-3.1268,-3.0994,-3.0991,-3.0989,-3.0987,0,0,-3.1232,-3.1202,-3.1222,-3.1222,-3.1208,-3.1236,-3.1289,-3.1306,-3.1326,-3.133,-3.1372,-3.1414,-3.1363,-3.137,-3.1331,-3.1374,-3.1501,-3.1313,-3.1312,-3.1348,-3.1623,-3.1665,-3.1689,-3.1465,-3.1469,-3.1472,-3.1624,0,-3.1387,-3.1474,-3.1425,-3.152,-3.1554,-3.1476,-3.1522,-3.1518,-3.1496,-3.1522,-3.1498,-3.1528,-3.1458,-3.1462,-3.1501,-3.1477,-3.1555,-3.1466,-3.1504,-3.1506,-3.1507,-3.1714,-3.1758,-3.1902,-3.1642,-3.1646,-3.1648,0,-3.1579,-3.1589,-3.1687,-3.1665,-3.1678,-3.172,-3.1731,-3.1757,-3.1751,-3.1731,-3.1739,-3.1689,-3.1739,-3.1658,-3.1726,-3.1666,-3.1679,-3.167,-3.1674,-3.1675,-3.1585,-3.1721,-3.1947,-3.1968,-3.1677,-3.1675,-3.1673,0,-3.1743,-3.1782,-3.1845,-3.1847,-3.1823,-3.1854,-3.1846,-3.1836,-3.1849,-3.1859,-3.1866,-3.1883,-3.1892,-3.1905,-3.1861,-3.1806,-3.1935,-3.185,-3.1921,-3.1922,-3.1951,-3.195,-3.2182,-3.1961,-3.196,-3.196,-3.196,0,-3.192,-3.1983,-3.1918,-3.1957,-3.2025,-3.1968,-3.2037,-3.202,-3.2011,-3.2045,-3.1979,-3.2013,-3.1953,-3.1981,-3.1947,-3.2008,-3.2013,-3.1999,-3.1989,-3.2004,-3.2006,-3.2012,-3.2,-3.1966,-3.1964,-3.1963,-3.1962,0,-3.2115,-3.2074,-3.2137,-3.2109,-3.2104,-3.2155,-3.2131,-3.2165,-3.2138,-3.2183,-3.219,-3.2148,-3.2177,-3.2135,-3.216,-3.2137,-3.2221,-3.2196,-3.2223,-3.2215,-3.2288,-3.2281,-3.2531,-3.256,-3.2321,-3.2324,-3.2326,0,-3.223,-3.2277,-3.2253,-3.2271,-3.2266,-3.2296,-3.2308,-3.2254,-3.227,-3.2266,-3.2301,-3.2324,-3.234,-3.239,-3.2362,-3.2381,-3.2356,-3.2442,-3.2358,-3.2372,-3.2356,-3.2354,-3.2358,-3.2459,-3.2462,-3.2464,-3.2466,0,-3.244,-3.2417,-3.2437,-3.245,-3.2467,-3.2475,-3.2478,-3.2496,-3.2439,-3.246,-3.2489,-3.2501,-3.2526,-3.255,-3.2561,-3.2552,-3.25,-3.2493,-3.251,-3.2526,-3.2539,-3.2532,-3.2269,-3.2487,-3.2485,-3.2484,-3.2483,-3.2482,-3.2598,-3.2634,-3.2623,-3.2648,-3.2644,-3.2648,-3.2679,-3.2655,-3.2678,-3.2693,-3.266,-3.2696,-3.2688,-3.2698,-3.2695,-3.2723,-3.2686,-3.2711,-3.2717,-3.2724,-3.2735,-3.2535,-3.2725,-3.2725,-3.2724,-3.2723,-3.2723,0,-3.2802,-3.2791,-3.2814,-3.282,-3.2839,-3.2787,-3.2788,-3.2807,-3.284,-3.2837,-3.2853,-3.2886,-3.2908,-3.2882,-3.29,-3.2927,-3.2904,-3.2934,-3.2931,-3.293,-3.2768,-3.2751,-3.2952,-3.2952,-3.2952,-3.2952,-3.2952,-3.2952,-3.2911,-3.297,-3.2946,-3.3003,-3.2991,-3.3025,-3.303,-3.3033,-3.303,-3.3069,-3.3087,-3.3069,-3.3057,-3.3073,-3.3092,-3.3083,-3.3093,-3.3131,-3.3115,-3.2964,-3.2941,-3.292,-3.2903,-3.3134,-3.3134,-3.3274,-3.3275,-3.3276]},{"header":{"parameterUnit":"m.s-1","parameterCategory":1,"la1":30.2991,"la2":30.254,"lo1":-89.0895,"lo2":-89.0444,"dy":0.0017,"dx":0.0017,"nx":28,"ny":28,"refTime":"2023-09-04T09:00:00:Z","depth":0,"parameterNumber":3,"parameterNumberName":"V-component_of_WINDS"},"data":[0,0,0,0,0,0,0,0,0,0,0,0,0,0,0,0,0,0,0,0,0,0,0,0,0,0,0,0,0,0,0,0,0,0,0,0,0,0,0,0,0,0,0,0,0,0,0,0,0,0,0,0,0,0,0,0,0,0,0.2225,0.2224,0,0.2162,0.2161,0.2161,0.2068,0.2066,0.2065,0.2063,0.1998,0.1997,0.1997,0,0,0,0,0,0,0,0,0,0,0,0,0,0.2265,0.2265,0.2225,0.2224,0.2223,0.2162,0.2161,0.216,0.2068,0.2066,0.2064,0.2062,0.1998,0.1997,0.1997,0,0,0,0,0,0,0,0,0,0,0,0,0,0.2229,0.2265,0.2225,0.217,0.2164,0.2162,0.2161,0.216,0.2069,0.2066,0.2064,0.2061,0.1998,0.1997,0.1997,0.2044,0,0,0.1996,0.1996,0,0,0,0,0,0,0,0,0.2232,0.2228,0.2179,0.2174,0.2168,0.212,0.2151,0.2121,0.2069,0.2105,0.2063,0.206,0.204,0.2036,0.203,0.204,0.2038,0.1996,0.1996,0.1996,0.1996,0,0,0,0,0,0,0,0.2234,0.223,0.22,0.2178,0.2171,0.2148,0.2141,0.2145,0.2087,0.2102,0.2095,0.2089,0.2037,0.203,0.2028,0.2037,0.1996,0.1996,0.1995,0.1995,0.2083,0.2085,0,0,0,0,0,0,0.2245,0.2233,0.2202,0.2198,0.2194,0.215,0.2141,0.2138,0.2087,0.2077,0.2091,0.2085,0.2032,0.2028,0.2025,0.2076,0.1996,0.1995,0.1995,0.208,0.2083,0.2086,0,0,0,0,0,0,0.2246,0.2243,0.2204,0.2214,0.2207,0.2151,0.2149,0.2138,0.2131,0.2078,0.2068,0.2095,0.203,0.2025,0.204,0.2073,0.1995,0.1995,0.2077,0.2081,0.2085,0.2179,0,0,0,0,0,0,0.2248,0.2244,0.2261,0.2215,0.2207,0.2221,0.2151,0.2138,0.2131,0.2122,0.208,0.207,0.2028,0.2041,0.204,0.2071,0.1995,0.2074,0.2079,0.2083,0.2173,0.2186,0.2197,0,0,0,0,0,0.2249,0.229,0.2262,0.2259,0.2227,0.2223,0.2218,0.2169,0.2134,0.2151,0.2117,0.2071,0.2069,0.2043,0.2041,0.2073,0.2072,0.2078,0.2083,0.2168,0.2183,0.2197,0,0,0,0,0,0,0.2341,0.2283,0.2252,0.2278,0.2257,0.2207,0.2227,0.2187,0.2175,0.2167,0.2106,0.2097,0.2119,0.2097,0.2069,0.2115,0.2064,0.2069,0.2129,0.2143,0.2155,0.216,0.1994,0,0,0,0,0,0.2365,0.2366,0.2315,0.2344,0.2334,0.2283,0.2279,0.2243,0.2218,0.2208,0.2175,0.2152,0.2146,0.2143,0.2135,0.2169,0.2159,0.219,0.2202,0.2212,0.2218,0.2235,0.2248,0.2105,0.2105,0.2105,0,0,0.2413,0.2381,0.2386,0.2361,0.234,0.2343,0.2276,0.2281,0.2283,0.2209,0.222,0.2196,0.2166,0.2191,0.22,0.2173,0.2255,0.2219,0.2228,0.2228,0.2242,0.2256,0.2268,0.2109,0.2108,0.2107,0,0,0.2503,0.2479,0.25,0.2481,0.2449,0.2415,0.242,0.2377,0.2358,0.2369,0.2314,0.2315,0.2305,0.2287,0.2276,0.236,0.2317,0.2359,0.2421,0.2439,0.245,0.246,0.249,0.2501,0.2364,0.2364,0.2365,0,0.2567,0.2569,0.2516,0.2526,0.2517,0.245,0.2472,0.2455,0.2423,0.2418,0.2388,0.2376,0.2351,0.2371,0.2392,0.2385,0.2389,0.2363,0.2453,0.2462,0.247,0.2498,0.251,0.237,0.2369,0.2369,0.2368,0,0.2649,0.2652,0.2673,0.2645,0.2638,0.2653,0.2603,0.2603,0.2568,0.2537,0.2549,0.2517,0.2501,0.2503,0.2469,0.2518,0.2503,0.2464,0.2411,0.249,0.2515,0.2526,0.2377,0.2375,0.2374,0.2372,0,0,0.2795,0.2737,0.2746,0.2732,0.2693,0.2694,0.2707,0.2692,0.2693,0.2673,0.2683,0.2677,0.2641,0.2629,0.2592,0.2607,0.2676,0.2566,0.2564,0.2588,0.2729,0.2759,0.2773,0.2648,0.265,0.2651,0.2732,0,0.2877,0.2896,0.2849,0.2879,0.2881,0.2818,0.2829,0.2807,0.2779,0.2776,0.2744,0.2741,0.2694,0.2686,0.2699,0.2665,0.2704,0.2659,0.2656,0.2657,0.2666,0.2786,0.2817,0.2895,0.2742,0.2743,0.2744,0,0.2975,0.2961,0.2992,0.2952,0.2951,0.2962,0.2945,0.2943,0.2916,0.2895,0.2882,0.2839,0.2849,0.2798,0.2811,0.2781,0.2777,0.2761,0.2763,0.2761,0.2706,0.2787,0.2919,0.2931,0.276,0.2758,0.2757,0,0.3079,0.3067,0.3084,0.3075,0.3028,0.3037,0.3019,0.2989,0.2984,0.2969,0.2964,0.2951,0.2943,0.2934,0.2888,0.2856,0.2907,0.2852,0.2889,0.289,0.2902,0.2902,0.3035,0.29,0.29,0.2899,0.2899,0,0.3175,0.3197,0.313,0.3141,0.3163,0.3109,0.3133,0.3107,0.3082,0.3087,0.3031,0.3037,0.2976,0.2975,0.294,0.2956,0.2953,0.2935,0.2926,0.2941,0.2943,0.2937,0.2931,0.2902,0.2902,0.2901,0.2901,0,0.3294,0.3251,0.3265,0.3221,0.321,0.3228,0.319,0.3198,0.3166,0.3173,0.3171,0.3121,0.3117,0.3071,0.3056,0.3033,0.3063,0.3043,0.3072,0.3066,0.3105,0.3102,0.3239,0.3255,0.311,0.3111,0.3112,0,0.3359,0.3374,0.3331,0.3331,0.3315,0.3314,0.3308,0.3256,0.3252,0.3223,0.3235,0.3227,0.3217,0.3213,0.3176,0.3164,0.3144,0.3193,0.3142,0.3156,0.3145,0.3145,0.3146,0.3203,0.3205,0.3207,0.3208,0,0.3478,0.3456,0.345,0.3437,0.3432,0.3418,0.3402,0.3404,0.3347,0.3345,0.3341,0.3334,0.3319,0.3312,0.3294,0.3274,0.3232,0.3224,0.3232,0.3248,0.3264,0.3256,0.3102,0.3221,0.322,0.3219,0.3218,0.3218,0.3572,0.3583,0.3555,0.355,0.3532,0.3518,0.3524,0.3493,0.3489,0.3473,0.3443,0.3443,0.3416,0.3388,0.3372,0.3372,0.3346,0.3358,0.3361,0.3364,0.3373,0.3265,0.3368,0.3368,0.3367,0.3367,0.3367,0,0.3689,0.3668,0.3664,0.3643,0.364,0.3601,0.358,0.358,0.3581,0.356,0.3552,0.3547,0.354,0.3502,0.3491,0.3497,0.3478,0.3496,0.3495,0.3491,0.3396,0.339,0.3512,0.3512,0.3512,0.3512,0.3512,0.3512,0.3749,0.3766,0.3741,0.3748,0.3726,0.3727,0.3719,0.3706,0.3689,0.3686,0.368,0.3655,0.3628,0.3614,0.3606,0.3594,0.3593,0.3618,0.3601,0.3512,0.3498,0.3485,0.3479,0.3618,0.3618,0.3696,0.3697,0.3698]}]]